Location: Betz
(49.1556°N, 2.9558°E)
Time: 13:20:47
(UTC+00:00)

Cosmos 405 Rocket - Pass Details

Date: 18 September 2019
Orbit: 491 x 554 km, 81.3° (Epoch: 14 October)

Event Time Altitude Azimuth Distance (km) Brightness Sun altitude
Exits shadow 19:26:34 21° 155° (SSE) 1,142 4.0 -15.3°
Maximum altitude 19:28:36 41° 95° (E) 723 2.9 -15.6°
Drops below altitude 10° 19:32:07 10° 25° (NNE) 1,704 5.3 -16.2°
Sets 19:34:19 0° 18° (NNE) 2,598 6.3 -16.5°
